Year,Month,Day,Hour,Minute,Value (Times are PST for temperature in C)
2012,06,29,00,00,11.80
2012,06,29,00,01,11.70
2012,06,29,00,02,11.70
2012,06,29,00,03,11.70
2012,06,29,00,04,11.60
2012,06,29,00,05,11.60
2012,06,29,00,06,11.60
2012,06,29,00,07,11.50
2012,06,29,00,08,11.50
2012,06,29,00,09,11.40
2012,06,29,00,10,11.40
2012,06,29,00,11,11.30
2012,06,29,00,12,11.30
2012,06,29,00,13,11.30
2012,06,29,00,14,11.30
2012,06,29,00,15,11.30
2012,06,29,00,16,11.20
2012,06,29,00,17,11.20
2012,06,29,00,18,11.20
2012,06,29,00,19,11.20
2012,06,29,00,20,11.20
2012,06,29,00,21,11.20
2012,06,29,00,22,11.20
2012,06,29,00,23,11.20
2012,06,29,00,24,11.20
2012,06,29,00,25,11.20
2012,06,29,00,26,11.20
2012,06,29,00,27,11.20
2012,06,29,00,28,11.20
2012,06,29,00,29,11.30
2012,06,29,00,30,11.30
2012,06,29,00,31,11.30
2012,06,29,00,32,11.30
2012,06,29,00,33,11.30
2012,06,29,00,34,11.30
2012,06,29,00,35,11.30
2012,06,29,00,36,11.30
2012,06,29,00,37,11.40
2012,06,29,00,38,11.40
2012,06,29,00,39,11.40
2012,06,29,00,40,11.40
2012,06,29,00,41,11.40
2012,06,29,00,42,11.40
2012,06,29,00,43,11.40
2012,06,29,00,44,11.40
2012,06,29,00,45,11.30
2012,06,29,00,46,11.30
2012,06,29,00,47,11.30
2012,06,29,00,48,11.20
2012,06,29,00,49,11.20
2012,06,29,00,50,11.20
2012,06,29,00,51,11.20
2012,06,29,00,52,11.20
2012,06,29,00,53,11.20
2012,06,29,00,54,11.20
2012,06,29,00,55,11.20
2012,06,29,00,56,11.20
2012,06,29,00,57,11.20
2012,06,29,00,58,11.20
2012,06,29,00,59,11.20
2012,06,29,01,00,11.20
2012,06,29,01,01,11.20
2012,06,29,01,02,11.20
2012,06,29,01,03,11.20
2012,06,29,01,04,11.20
2012,06,29,01,05,11.20
2012,06,29,01,06,11.20
2012,06,29,01,07,11.20
2012,06,29,01,08,11.20
2012,06,29,01,09,11.20
2012,06,29,01,10,11.20
2012,06,29,01,11,11.20
2012,06,29,01,12,11.20
2012,06,29,01,13,11.20
2012,06,29,01,14,11.20
2012,06,29,01,15,11.20
2012,06,29,01,16,11.20
2012,06,29,01,17,11.30
2012,06,29,01,18,11.30
2012,06,29,01,19,11.30
2012,06,29,01,20,11.30
2012,06,29,01,21,11.30
2012,06,29,01,22,11.30
2012,06,29,01,23,11.30
2012,06,29,01,24,11.30
2012,06,29,01,25,11.40
2012,06,29,01,26,11.40
2012,06,29,01,27,11.40
2012,06,29,01,28,11.40
2012,06,29,01,29,11.40
2012,06,29,01,30,11.40
2012,06,29,01,31,11.40
2012,06,29,01,32,11.40
2012,06,29,01,33,11.50
2012,06,29,01,34,11.50
2012,06,29,01,35,11.50
2012,06,29,01,36,11.50
2012,06,29,01,37,11.50
2012,06,29,01,38,11.60
2012,06,29,01,39,11.60
2012,06,29,01,40,11.60
2012,06,29,01,41,11.60
2012,06,29,01,42,11.60
2012,06,29,01,43,11.60
2012,06,29,01,44,11.60
2012,06,29,01,45,11.60
2012,06,29,01,46,11.60
2012,06,29,01,47,11.60
2012,06,29,01,48,11.60
2012,06,29,01,49,11.60
2012,06,29,01,50,11.60
2012,06,29,01,51,11.60
2012,06,29,01,52,11.60
2012,06,29,01,53,11.60
2012,06,29,01,54,11.60
2012,06,29,01,55,11.60
2012,06,29,01,56,11.60
2012,06,29,01,57,11.60
2012,06,29,01,58,11.60
2012,06,29,01,59,11.70
2012,06,29,02,00,11.70
2012,06,29,02,01,11.70
2012,06,29,02,02,11.70
2012,06,29,02,03,11.70
2012,06,29,02,04,11.70
2012,06,29,02,05,11.70
2012,06,29,02,06,11.70
2012,06,29,02,07,11.70
2012,06,29,02,08,11.70
2012,06,29,02,09,11.70
2012,06,29,02,10,11.70
2012,06,29,02,11,11.70
2012,06,29,02,12,11.70
2012,06,29,02,13,11.70
2012,06,29,02,14,11.80
2012,06,29,02,15,11.80
2012,06,29,02,16,11.80
2012,06,29,02,17,11.80
2012,06,29,02,18,11.80
2012,06,29,02,19,11.80
2012,06,29,02,20,11.80
2012,06,29,02,21,11.80
2012,06,29,02,22,11.80
2012,06,29,02,23,11.80
2012,06,29,02,24,11.70
2012,06,29,02,25,11.70
2012,06,29,02,26,11.60
2012,06,29,02,27,11.60
2012,06,29,02,28,11.50
2012,06,29,02,29,11.40
2012,06,29,02,30,11.40
2012,06,29,02,31,11.40
2012,06,29,02,32,11.30
2012,06,29,02,33,11.30
2012,06,29,02,34,11.30
2012,06,29,02,35,11.30
2012,06,29,02,36,11.30
2012,06,29,02,37,11.30
2012,06,29,02,38,11.30
2012,06,29,02,39,11.30
2012,06,29,02,40,11.30
2012,06,29,02,41,11.30
2012,06,29,02,42,11.40
2012,06,29,02,43,11.40
2012,06,29,02,44,11.40
2012,06,29,02,45,11.40
2012,06,29,02,46,11.40
2012,06,29,02,47,11.40
2012,06,29,02,48,11.50
2012,06,29,02,49,11.50
2012,06,29,02,50,11.50
2012,06,29,02,51,11.60
2012,06,29,02,52,11.60
2012,06,29,02,53,11.60
2012,06,29,02,54,11.60
2012,06,29,02,55,11.70
2012,06,29,02,56,11.70
2012,06,29,02,57,11.70
2012,06,29,02,58,11.70
2012,06,29,02,59,11.70
2012,06,29,03,00,11.70
2012,06,29,03,01,11.70
2012,06,29,03,02,11.80
2012,06,29,03,03,11.80
2012,06,29,03,04,11.80
2012,06,29,03,05,11.80
2012,06,29,03,06,11.80
2012,06,29,03,07,11.80
2012,06,29,03,08,11.80
2012,06,29,03,09,11.80
2012,06,29,03,10,11.80
2012,06,29,03,11,11.80
2012,06,29,03,12,11.80
2012,06,29,03,13,11.80
2012,06,29,03,14,11.80
2012,06,29,03,15,11.80
2012,06,29,03,16,11.90
2012,06,29,03,17,11.90
2012,06,29,03,18,11.90
2012,06,29,03,19,11.90
2012,06,29,03,20,11.90
2012,06,29,03,21,11.90
2012,06,29,03,22,11.90
2012,06,29,03,23,11.80
2012,06,29,03,24,11.80
2012,06,29,03,25,11.80
2012,06,29,03,26,11.80
2012,06,29,03,27,11.80
2012,06,29,03,28,11.80
2012,06,29,03,29,11.80
2012,06,29,03,30,11.80
2012,06,29,03,31,11.80
2012,06,29,03,32,11.80
2012,06,29,03,33,11.80
2012,06,29,03,34,11.80
2012,06,29,03,35,11.80
2012,06,29,03,36,11.80
2012,06,29,03,37,11.80
2012,06,29,03,38,11.80
2012,06,29,03,39,11.80
2012,06,29,03,40,11.80
2012,06,29,03,41,11.80
2012,06,29,03,42,11.80
2012,06,29,03,43,11.80
2012,06,29,03,44,11.80
2012,06,29,03,45,11.80
2012,06,29,03,46,11.80
2012,06,29,03,47,11.80
2012,06,29,03,48,11.80
2012,06,29,03,49,11.80
2012,06,29,03,50,11.80
2012,06,29,03,51,11.80
2012,06,29,03,52,11.80
2012,06,29,03,53,11.80
2012,06,29,03,54,11.80
2012,06,29,03,55,11.80
2012,06,29,03,56,11.90
2012,06,29,03,57,11.90
2012,06,29,03,58,11.90
2012,06,29,03,59,11.90
2012,06,29,04,00,11.90
2012,06,29,04,01,11.90
2012,06,29,04,02,11.90
2012,06,29,04,03,11.90
2012,06,29,04,04,11.90
2012,06,29,04,05,11.90
2012,06,29,04,06,11.90
2012,06,29,04,07,11.90
2012,06,29,04,08,11.90
2012,06,29,04,09,11.90
2012,06,29,04,10,11.90
2012,06,29,04,11,11.90
2012,06,29,04,12,11.90
2012,06,29,04,13,11.90
2012,06,29,04,14,11.90
2012,06,29,04,15,11.90
2012,06,29,04,16,11.90
2012,06,29,04,17,11.90
2012,06,29,04,18,11.90
2012,06,29,04,19,11.90
2012,06,29,04,20,11.90
2012,06,29,04,21,11.90
2012,06,29,04,22,12.00
2012,06,29,04,23,12.00
2012,06,29,04,24,12.00
2012,06,29,04,25,12.00
2012,06,29,04,26,12.00
2012,06,29,04,27,12.00
2012,06,29,04,28,11.90
2012,06,29,04,29,11.90
2012,06,29,04,30,11.90
2012,06,29,04,31,11.90
2012,06,29,04,32,11.80
2012,06,29,04,33,11.80
2012,06,29,04,34,11.80
2012,06,29,04,35,11.80
2012,06,29,04,36,11.70
2012,06,29,04,37,11.70
2012,06,29,04,38,11.70
2012,06,29,04,39,11.70
2012,06,29,04,40,11.70
2012,06,29,04,41,11.60
2012,06,29,04,42,11.60
2012,06,29,04,43,11.60
2012,06,29,04,44,11.60
2012,06,29,04,45,11.60
2012,06,29,04,46,11.60
2012,06,29,04,47,11.60
2012,06,29,04,48,11.60
2012,06,29,04,49,11.60
2012,06,29,04,50,11.60
2012,06,29,04,51,11.60
2012,06,29,04,52,11.60
2012,06,29,04,53,11.60
2012,06,29,04,54,11.60
2012,06,29,04,55,11.60
2012,06,29,04,56,11.60
2012,06,29,04,57,11.60
2012,06,29,04,58,11.60
2012,06,29,04,59,11.50
2012,06,29,05,00,11.50
2012,06,29,05,01,11.50
2012,06,29,05,02,11.40
2012,06,29,05,03,11.40
2012,06,29,05,04,11.40
2012,06,29,05,05,11.40
2012,06,29,05,06,11.40
2012,06,29,05,07,11.30
2012,06,29,05,08,11.30
2012,06,29,05,09,11.30
2012,06,29,05,10,11.20
2012,06,29,05,11,11.20
2012,06,29,05,12,11.20
2012,06,29,05,13,11.20
2012,06,29,05,14,11.10
2012,06,29,05,15,11.10
2012,06,29,05,16,11.10
2012,06,29,05,17,11.10
2012,06,29,05,18,11.00
2012,06,29,05,19,11.00
2012,06,29,05,20,10.90
2012,06,29,05,21,10.90
2012,06,29,05,22,10.90
2012,06,29,05,23,10.80
2012,06,29,05,24,10.80
2012,06,29,05,25,10.80
2012,06,29,05,26,10.80
2012,06,29,05,27,10.70
2012,06,29,05,28,10.70
2012,06,29,05,29,10.60
2012,06,29,05,30,10.60
2012,06,29,05,31,10.60
2012,06,29,05,32,10.60
2012,06,29,05,33,10.60
2012,06,29,05,34,10.50
2012,06,29,05,35,10.50
2012,06,29,05,36,10.50
2012,06,29,05,37,10.50
2012,06,29,05,38,10.50
2012,06,29,05,39,10.50
2012,06,29,05,40,10.60
2012,06,29,05,41,10.60
2012,06,29,05,42,10.60
2012,06,29,05,43,10.60
2012,06,29,05,44,10.60
2012,06,29,05,45,10.70
2012,06,29,05,46,10.70
2012,06,29,05,47,10.70
2012,06,29,05,48,10.70
2012,06,29,05,49,10.70
2012,06,29,05,50,10.80
2012,06,29,05,51,10.80
2012,06,29,05,52,10.80
2012,06,29,05,53,10.80
2012,06,29,05,54,10.80
2012,06,29,05,55,10.80
2012,06,29,05,56,10.80
2012,06,29,05,57,10.90
2012,06,29,05,58,10.90
2012,06,29,05,59,11.00
2012,06,29,06,00,11.00
2012,06,29,06,01,11.10
2012,06,29,06,02,11.10
2012,06,29,06,03,11.10
2012,06,29,06,04,11.10
2012,06,29,06,05,11.20
2012,06,29,06,06,11.20
2012,06,29,06,07,11.20
2012,06,29,06,08,11.20
2012,06,29,06,09,11.20
2012,06,29,06,10,11.10
2012,06,29,06,11,11.00
2012,06,29,06,12,11.00
2012,06,29,06,13,10.90
2012,06,29,06,14,10.90
2012,06,29,06,15,10.80
2012,06,29,06,16,10.80
2012,06,29,06,17,10.80
2012,06,29,06,18,10.80
2012,06,29,06,19,10.80
2012,06,29,06,20,10.80
2012,06,29,06,21,10.80
2012,06,29,06,22,10.80
2012,06,29,06,23,10.80
2012,06,29,06,24,10.70
2012,06,29,06,25,10.70
2012,06,29,06,26,10.70
2012,06,29,06,27,10.70
2012,06,29,06,28,10.70
2012,06,29,06,29,10.70
2012,06,29,06,30,10.70
2012,06,29,06,31,10.70
2012,06,29,06,32,10.70
2012,06,29,06,33,10.70
2012,06,29,06,34,10.70
2012,06,29,06,35,10.70
2012,06,29,06,36,10.70
2012,06,29,06,37,10.80
2012,06,29,06,38,10.80
2012,06,29,06,39,10.80
2012,06,29,06,40,10.80
2012,06,29,06,41,10.80
2012,06,29,06,42,10.80
2012,06,29,06,43,10.90
2012,06,29,06,44,11.00
2012,06,29,06,45,11.10
2012,06,29,06,46,11.20
2012,06,29,06,47,11.20
2012,06,29,06,48,11.30
2012,06,29,06,49,11.30
2012,06,29,06,50,11.30
2012,06,29,06,51,11.30
2012,06,29,06,52,11.30
2012,06,29,06,53,11.30
2012,06,29,06,54,11.20
2012,06,29,06,55,11.10
2012,06,29,06,56,11.00
2012,06,29,06,57,10.90
2012,06,29,06,58,10.90
2012,06,29,06,59,10.90
2012,06,29,07,00,10.80
2012,06,29,07,01,10.80
2012,06,29,07,02,10.80
2012,06,29,07,03,10.80
2012,06,29,07,04,10.70
2012,06,29,07,05,10.70
2012,06,29,07,06,10.80
2012,06,29,07,07,10.80
2012,06,29,07,08,10.80
2012,06,29,07,09,10.90
2012,06,29,07,10,10.90
2012,06,29,07,11,10.90
2012,06,29,07,12,10.90
2012,06,29,07,13,10.80
2012,06,29,07,14,10.80
2012,06,29,07,15,10.80
2012,06,29,07,16,10.90
2012,06,29,07,17,10.90
2012,06,29,07,18,11.00
2012,06,29,07,19,11.00
2012,06,29,07,20,11.10
2012,06,29,07,21,11.10
2012,06,29,07,22,11.20
2012,06,29,07,23,11.20
2012,06,29,07,24,11.30
2012,06,29,07,25,11.30
2012,06,29,07,26,11.30
2012,06,29,07,27,11.30
2012,06,29,07,28,11.30
2012,06,29,07,29,11.40
2012,06,29,07,30,11.40
2012,06,29,07,31,11.40
2012,06,29,07,32,11.50
2012,06,29,07,33,11.50
2012,06,29,07,34,11.50
2012,06,29,07,35,11.60
2012,06,29,07,36,11.60
2012,06,29,07,37,11.70
2012,06,29,07,38,11.80
2012,06,29,07,39,11.90
2012,06,29,07,40,11.90
2012,06,29,07,41,12.00
2012,06,29,07,42,12.10
2012,06,29,07,43,12.10
2012,06,29,07,44,12.10
2012,06,29,07,45,12.20
2012,06,29,07,46,12.20
2012,06,29,07,47,12.30
2012,06,29,07,48,12.50
2012,06,29,07,49,12.60
2012,06,29,07,50,12.80
2012,06,29,07,51,12.80
2012,06,29,07,52,12.80
2012,06,29,07,53,12.70
2012,06,29,07,54,12.60
2012,06,29,07,55,12.60
2012,06,29,07,56,12.60
2012,06,29,07,57,12.60
2012,06,29,07,58,12.70
2012,06,29,07,59,12.70
2012,06,29,08,00,12.70
2012,06,29,08,01,12.70
2012,06,29,08,02,12.70
2012,06,29,08,03,12.70
2012,06,29,08,04,12.70
2012,06,29,08,05,12.70
2012,06,29,08,06,12.70
2012,06,29,08,07,12.80
2012,06,29,08,08,12.80
2012,06,29,08,09,12.90
2012,06,29,08,10,13.00
2012,06,29,08,11,13.10
2012,06,29,08,12,13.20
2012,06,29,08,13,13.20
2012,06,29,08,14,13.30
2012,06,29,08,15,13.40
2012,06,29,08,16,13.60
2012,06,29,08,17,13.70
2012,06,29,08,18,13.70
2012,06,29,08,19,13.70
2012,06,29,08,20,13.80
2012,06,29,08,21,13.80
2012,06,29,08,22,13.90
2012,06,29,08,23,13.90
2012,06,29,08,24,13.90
2012,06,29,08,25,13.90
2012,06,29,08,26,14.00
2012,06,29,08,27,14.00
2012,06,29,08,28,14.10
2012,06,29,08,29,14.10
2012,06,29,08,30,14.10
2012,06,29,08,31,14.10
2012,06,29,08,32,14.10
2012,06,29,08,33,14.10
2012,06,29,08,34,14.10
2012,06,29,08,35,14.10
2012,06,29,08,36,14.20
2012,06,29,08,37,14.20
2012,06,29,08,38,14.20
2012,06,29,08,39,14.20
2012,06,29,08,40,14.10
2012,06,29,08,41,14.10
2012,06,29,08,42,14.10
2012,06,29,08,43,14.10
2012,06,29,08,44,14.20
2012,06,29,08,45,14.20
2012,06,29,08,46,14.20
2012,06,29,08,47,14.30
2012,06,29,08,48,14.30
2012,06,29,08,49,14.30
2012,06,29,08,50,14.30
2012,06,29,08,51,14.30
2012,06,29,08,52,14.30
2012,06,29,08,53,14.30
2012,06,29,08,54,14.30
2012,06,29,08,55,14.40
2012,06,29,08,56,14.50
2012,06,29,08,57,14.50
2012,06,29,08,58,14.60
2012,06,29,08,59,14.70
2012,06,29,09,00,14.80
2012,06,29,09,01,14.90
2012,06,29,09,02,15.00
2012,06,29,09,03,15.00
2012,06,29,09,04,14.90
2012,06,29,09,05,14.80
2012,06,29,09,06,14.80
2012,06,29,09,07,14.70
2012,06,29,09,08,14.70
2012,06,29,09,09,14.70
2012,06,29,09,10,14.70
2012,06,29,09,11,14.70
2012,06,29,09,12,14.80
2012,06,29,09,13,14.80
2012,06,29,09,14,14.80
2012,06,29,09,15,14.90
2012,06,29,09,16,14.90
2012,06,29,09,17,14.90
2012,06,29,09,18,14.90
2012,06,29,09,19,14.80
2012,06,29,09,20,14.80
2012,06,29,09,21,14.90
2012,06,29,09,22,14.90
2012,06,29,09,23,14.90
2012,06,29,09,24,15.00
2012,06,29,09,25,15.00
2012,06,29,09,26,15.00
2012,06,29,09,27,15.00
2012,06,29,09,28,15.00
2012,06,29,09,29,15.00
2012,06,29,09,30,15.00
2012,06,29,09,31,15.10
2012,06,29,09,32,15.20
2012,06,29,09,33,15.20
2012,06,29,09,34,15.20
2012,06,29,09,35,15.20
2012,06,29,09,36,15.20
2012,06,29,09,37,15.10
2012,06,29,09,38,15.10
2012,06,29,09,39,15.10
2012,06,29,09,40,15.10
2012,06,29,09,41,15.20
2012,06,29,09,42,15.20
2012,06,29,09,43,15.30
2012,06,29,09,44,15.30
2012,06,29,09,45,15.30
2012,06,29,09,46,15.40
2012,06,29,09,47,15.50
2012,06,29,09,48,15.60
2012,06,29,09,49,15.70
2012,06,29,09,50,15.80
2012,06,29,09,51,15.90
2012,06,29,09,52,16.00
2012,06,29,09,53,16.00
2012,06,29,09,54,16.00
2012,06,29,09,55,16.00
2012,06,29,09,56,16.00
2012,06,29,09,57,16.00
2012,06,29,09,58,16.00
2012,06,29,09,59,16.00
2012,06,29,10,00,16.10
2012,06,29,10,01,16.10
2012,06,29,10,02,16.10
2012,06,29,10,03,16.00
2012,06,29,10,04,16.00
2012,06,29,10,05,15.90
2012,06,29,10,06,15.80
2012,06,29,10,07,15.80
2012,06,29,10,08,15.70
2012,06,29,10,09,15.70
2012,06,29,10,10,15.70
2012,06,29,10,11,15.60
2012,06,29,10,12,15.50
2012,06,29,10,13,15.40
2012,06,29,10,14,15.30
2012,06,29,10,15,15.10
2012,06,29,10,16,15.00
2012,06,29,10,17,15.00
2012,06,29,10,18,15.00
2012,06,29,10,19,14.80
2012,06,29,10,20,14.70
2012,06,29,10,21,14.60
2012,06,29,10,22,14.60
2012,06,29,10,23,14.70
2012,06,29,10,24,14.70
2012,06,29,10,25,14.70
2012,06,29,10,26,14.60
2012,06,29,10,27,14.60
2012,06,29,10,28,14.60
2012,06,29,10,29,14.60
2012,06,29,10,30,14.60
2012,06,29,10,31,14.60
2012,06,29,10,32,14.60
2012,06,29,10,33,14.60
2012,06,29,10,34,14.60
2012,06,29,10,35,14.60
2012,06,29,10,36,14.60
2012,06,29,10,37,14.70
2012,06,29,10,38,14.70
2012,06,29,10,39,14.70
2012,06,29,10,40,14.70
2012,06,29,10,41,14.60
2012,06,29,10,42,14.50
2012,06,29,10,43,14.40
2012,06,29,10,44,14.30
2012,06,29,10,45,14.30
2012,06,29,10,46,14.30
2012,06,29,10,47,14.30
2012,06,29,10,48,14.30
2012,06,29,10,49,14.30
2012,06,29,10,50,14.30
2012,06,29,10,51,14.30
2012,06,29,10,52,14.40
2012,06,29,10,53,14.40
2012,06,29,10,54,14.40
2012,06,29,10,55,14.40
2012,06,29,10,56,14.40
2012,06,29,10,57,14.40
2012,06,29,10,58,14.40
2012,06,29,10,59,14.40
2012,06,29,11,00,14.40
2012,06,29,11,01,14.40
2012,06,29,11,02,14.40
2012,06,29,11,03,14.40
2012,06,29,11,04,14.30
2012,06,29,11,05,14.10
2012,06,29,11,06,14.10
2012,06,29,11,07,14.00
2012,06,29,11,08,14.00
2012,06,29,11,09,14.10
2012,06,29,11,10,14.10
2012,06,29,11,11,14.20
2012,06,29,11,12,14.20
2012,06,29,11,13,14.30
2012,06,29,11,14,14.30
2012,06,29,11,15,14.30
2012,06,29,11,16,14.40
2012,06,29,11,17,14.40
2012,06,29,11,18,14.40
2012,06,29,11,19,14.30
2012,06,29,11,20,14.20
2012,06,29,11,21,14.20
2012,06,29,11,22,14.10
2012,06,29,11,23,14.10
2012,06,29,11,24,14.20
2012,06,29,11,25,14.20
2012,06,29,11,26,14.30
2012,06,29,11,27,14.30
2012,06,29,11,28,14.30
2012,06,29,11,29,14.40
2012,06,29,11,30,14.40
2012,06,29,11,31,14.30
2012,06,29,11,32,14.30
2012,06,29,11,33,14.30
2012,06,29,11,34,14.40
2012,06,29,11,35,14.30
2012,06,29,11,36,14.30
2012,06,29,11,37,14.30
2012,06,29,11,38,14.30
2012,06,29,11,39,14.30
2012,06,29,11,40,14.40
2012,06,29,11,41,14.40
2012,06,29,11,42,14.40
2012,06,29,11,43,14.50
2012,06,29,11,44,14.60
2012,06,29,11,45,14.60
2012,06,29,11,46,14.70
2012,06,29,11,47,14.70
2012,06,29,11,48,14.70
2012,06,29,11,49,14.70
2012,06,29,11,50,14.70
2012,06,29,11,51,14.70
2012,06,29,11,52,14.80
2012,06,29,11,53,14.80
2012,06,29,11,54,14.90
2012,06,29,11,55,14.90
2012,06,29,11,56,15.00
2012,06,29,11,57,15.00
2012,06,29,11,58,15.00
2012,06,29,11,59,15.00
2012,06,29,12,00,15.20
2012,06,29,12,01,15.20
2012,06,29,12,02,15.10
2012,06,29,12,03,15.10
2012,06,29,12,04,15.10
2012,06,29,12,05,15.10
2012,06,29,12,06,15.20
2012,06,29,12,07,15.30
2012,06,29,12,08,15.40
2012,06,29,12,09,15.50
2012,06,29,12,10,15.70
2012,06,29,12,11,15.80
2012,06,29,12,12,15.80
2012,06,29,12,13,15.80
2012,06,29,12,14,15.90
2012,06,29,12,15,16.00
2012,06,29,12,16,16.00
2012,06,29,12,17,16.10
2012,06,29,12,18,16.10
2012,06,29,12,19,16.10
2012,06,29,12,20,16.10
2012,06,29,12,21,16.10
2012,06,29,12,22,16.10
2012,06,29,12,23,16.10
2012,06,29,12,24,16.10
2012,06,29,12,25,16.10
2012,06,29,12,26,16.10
2012,06,29,12,27,16.10
2012,06,29,12,28,16.20
2012,06,29,12,29,16.20
2012,06,29,12,30,16.20
2012,06,29,12,31,16.10
2012,06,29,12,32,16.10
2012,06,29,12,33,16.00
2012,06,29,12,34,16.00
2012,06,29,12,35,16.00
2012,06,29,12,36,16.10
2012,06,29,12,37,16.10
2012,06,29,12,38,16.10
2012,06,29,12,39,16.00
2012,06,29,12,40,15.90
2012,06,29,12,41,15.90
2012,06,29,12,42,15.80
2012,06,29,12,43,15.80
2012,06,29,12,44,15.80
2012,06,29,12,45,15.80
2012,06,29,12,46,15.80
2012,06,29,12,47,15.80
2012,06,29,12,48,15.70
2012,06,29,12,49,15.60
2012,06,29,12,50,15.50
2012,06,29,12,51,15.30
2012,06,29,12,52,15.20
2012,06,29,12,53,15.00
2012,06,29,12,54,15.00
2012,06,29,12,55,15.00
2012,06,29,12,56,15.00
2012,06,29,12,57,14.90
2012,06,29,12,58,14.80
2012,06,29,12,59,14.80
2012,06,29,13,00,14.80
2012,06,29,13,01,14.80
2012,06,29,13,02,14.80
2012,06,29,13,03,14.80
2012,06,29,13,04,14.80
2012,06,29,13,05,14.80
2012,06,29,13,06,14.80
2012,06,29,13,07,14.80
2012,06,29,13,08,14.80
2012,06,29,13,09,14.70
2012,06,29,13,10,14.70
2012,06,29,13,11,14.70
2012,06,29,13,12,14.60
2012,06,29,13,13,14.60
2012,06,29,13,14,14.60
2012,06,29,13,15,14.60
2012,06,29,13,16,14.60
2012,06,29,13,17,14.60
2012,06,29,13,18,14.60
2012,06,29,13,19,14.60
2012,06,29,13,20,14.50
2012,06,29,13,21,14.50
2012,06,29,13,22,14.50
2012,06,29,13,23,14.50
2012,06,29,13,24,14.50
2012,06,29,13,25,14.50
2012,06,29,13,26,14.50
2012,06,29,13,27,14.50
2012,06,29,13,28,14.50
2012,06,29,13,29,14.50
2012,06,29,13,30,14.50
2012,06,29,13,31,14.50
2012,06,29,13,32,14.60
2012,06,29,13,33,14.60
2012,06,29,13,34,14.60
2012,06,29,13,35,14.60
2012,06,29,13,36,14.60
2012,06,29,13,37,14.70
2012,06,29,13,38,14.80
2012,06,29,13,39,14.90
2012,06,29,13,40,15.00
2012,06,29,13,41,15.00
2012,06,29,13,42,15.10
2012,06,29,13,43,15.20
2012,06,29,13,44,15.30
2012,06,29,13,45,15.40
2012,06,29,13,46,15.50
2012,06,29,13,47,15.60
2012,06,29,13,48,15.70
2012,06,29,13,49,15.70
2012,06,29,13,50,15.80
2012,06,29,13,51,15.70
2012,06,29,13,52,15.70
2012,06,29,13,53,15.60
2012,06,29,13,54,15.60
2012,06,29,13,55,15.70
2012,06,29,13,56,15.70
2012,06,29,13,57,15.70
2012,06,29,13,58,15.70
2012,06,29,13,59,15.60
2012,06,29,14,00,15.50
2012,06,29,14,01,15.40
2012,06,29,14,02,15.30
2012,06,29,14,03,15.20
2012,06,29,14,04,15.10
2012,06,29,14,05,15.00
2012,06,29,14,06,15.00
2012,06,29,14,07,15.00
2012,06,29,14,08,15.00
2012,06,29,14,09,15.00
2012,06,29,14,10,15.00
2012,06,29,14,11,15.00
2012,06,29,14,12,15.00
2012,06,29,14,13,15.20
2012,06,29,14,14,15.30
2012,06,29,14,15,15.30
2012,06,29,14,16,15.30
2012,06,29,14,17,15.40
2012,06,29,14,18,15.40
2012,06,29,14,19,15.40
2012,06,29,14,20,15.50
2012,06,29,14,21,15.60
2012,06,29,14,22,15.70
2012,06,29,14,23,15.80
2012,06,29,14,24,16.00
2012,06,29,14,25,16.10
2012,06,29,14,26,16.20
2012,06,29,14,27,16.20
2012,06,29,14,28,16.30
2012,06,29,14,29,16.30
2012,06,29,14,30,16.40
2012,06,29,14,31,16.40
2012,06,29,14,32,16.50
2012,06,29,14,33,16.60
2012,06,29,14,34,16.70
2012,06,29,14,35,16.60
2012,06,29,14,36,16.50
2012,06,29,14,37,16.40
2012,06,29,14,38,16.30
2012,06,29,14,39,16.20
2012,06,29,14,40,16.20
2012,06,29,14,41,16.20
2012,06,29,14,42,16.20
2012,06,29,14,43,16.10
2012,06,29,14,44,16.10
2012,06,29,14,45,16.10
2012,06,29,14,46,16.20
2012,06,29,14,47,16.30
2012,06,29,14,48,16.50
2012,06,29,14,49,16.60
2012,06,29,14,50,16.80
2012,06,29,14,51,16.90
2012,06,29,14,52,16.90
2012,06,29,14,53,16.80
2012,06,29,14,54,16.80
2012,06,29,14,55,16.80
2012,06,29,14,56,16.70
2012,06,29,14,57,16.70
2012,06,29,14,58,16.80
2012,06,29,14,59,16.90
2012,06,29,15,00,17.00
2012,06,29,15,01,17.00
2012,06,29,15,02,17.10
2012,06,29,15,03,17.00
2012,06,29,15,04,16.90
2012,06,29,15,05,16.80
2012,06,29,15,06,16.70
2012,06,29,15,07,16.80
2012,06,29,15,08,16.90
2012,06,29,15,09,17.10
2012,06,29,15,10,17.30
2012,06,29,15,11,17.50
2012,06,29,15,12,17.60
2012,06,29,15,13,17.80
2012,06,29,15,14,17.70
2012,06,29,15,15,17.70
2012,06,29,15,16,17.70
2012,06,29,15,17,17.80
2012,06,29,15,18,17.80
2012,06,29,15,19,17.90
2012,06,29,15,20,17.90
2012,06,29,15,21,18.00
2012,06,29,15,22,18.00
2012,06,29,15,23,18.00
2012,06,29,15,24,17.90
2012,06,29,15,25,17.90
2012,06,29,15,26,17.90
2012,06,29,15,27,17.50
2012,06,29,15,28,17.20
2012,06,29,15,29,17.00
2012,06,29,15,30,16.70
2012,06,29,15,31,16.50
2012,06,29,15,32,16.30
2012,06,29,15,33,16.10
2012,06,29,15,34,15.90
2012,06,29,15,35,15.80
2012,06,29,15,36,15.60
2012,06,29,15,37,15.50
2012,06,29,15,38,15.40
2012,06,29,15,39,15.30
2012,06,29,15,40,15.40
2012,06,29,15,41,15.40
2012,06,29,15,42,15.50
2012,06,29,15,43,15.60
2012,06,29,15,44,15.50
2012,06,29,15,45,15.40
2012,06,29,15,46,15.30
2012,06,29,15,47,15.20
2012,06,29,15,48,15.10
2012,06,29,15,49,15.00
2012,06,29,15,50,15.00
2012,06,29,15,51,15.00
2012,06,29,15,52,14.90
2012,06,29,15,53,14.80
2012,06,29,15,54,14.80
2012,06,29,15,55,14.70
2012,06,29,15,56,14.90
2012,06,29,15,57,15.00
2012,06,29,15,58,15.00
2012,06,29,15,59,15.00
2012,06,29,16,00,15.00
2012,06,29,16,01,15.00
2012,06,29,16,02,15.10
2012,06,29,16,03,15.20
2012,06,29,16,04,15.30
2012,06,29,16,05,15.40
2012,06,29,16,06,15.50
2012,06,29,16,07,15.50
2012,06,29,16,08,15.50
2012,06,29,16,09,15.40
2012,06,29,16,10,15.40
2012,06,29,16,11,15.40
2012,06,29,16,12,15.20
2012,06,29,16,13,15.00
2012,06,29,16,14,15.00
2012,06,29,16,15,15.00
2012,06,29,16,16,15.00
2012,06,29,16,17,14.90
2012,06,29,16,18,15.00
2012,06,29,16,19,15.00
2012,06,29,16,20,15.00
2012,06,29,16,21,14.80
2012,06,29,16,22,14.70
2012,06,29,16,23,14.50
2012,06,29,16,24,14.40
2012,06,29,16,25,14.30
2012,06,29,16,26,14.30
2012,06,29,16,27,14.30
2012,06,29,16,28,14.30
2012,06,29,16,29,14.30
2012,06,29,16,30,14.30
2012,06,29,16,31,14.30
2012,06,29,16,32,14.20
2012,06,29,16,33,14.20
2012,06,29,16,34,14.20
2012,06,29,16,35,14.30
2012,06,29,16,36,14.30
2012,06,29,16,37,14.40
2012,06,29,16,38,14.50
2012,06,29,16,39,14.50
2012,06,29,16,40,14.60
2012,06,29,16,41,14.60
2012,06,29,16,42,14.60
2012,06,29,16,43,14.70
2012,06,29,16,44,14.70
2012,06,29,16,45,14.80
2012,06,29,16,46,14.90
2012,06,29,16,47,15.00
2012,06,29,16,48,15.00
2012,06,29,16,49,15.10
2012,06,29,16,50,15.30
2012,06,29,16,51,15.40
2012,06,29,16,52,15.50
2012,06,29,16,53,15.60
2012,06,29,16,54,15.70
2012,06,29,16,55,15.80
2012,06,29,16,56,15.90
2012,06,29,16,57,16.00
2012,06,29,16,58,16.10
2012,06,29,16,59,16.20
2012,06,29,17,00,16.40
2012,06,29,17,01,16.50
2012,06,29,17,02,16.70
2012,06,29,17,03,16.80
2012,06,29,17,04,17.00
2012,06,29,17,05,17.10
2012,06,29,17,06,17.20
2012,06,29,17,07,17.30
2012,06,29,17,08,17.40
2012,06,29,17,09,17.50
2012,06,29,17,10,17.50
2012,06,29,17,11,17.60
2012,06,29,17,12,17.60
2012,06,29,17,13,17.60
2012,06,29,17,14,17.60
2012,06,29,17,15,17.70
2012,06,29,17,16,17.60
2012,06,29,17,17,17.60
2012,06,29,17,18,17.50
2012,06,29,17,19,17.50